Cape Cod CGAS, MA

3:56 PM EDT on August 17, 2017 (GMT -0400)
Cape Cod Coast Guard Air Station

Weather History for KFMH - December, 2014

Change the Weather History Date:

Friday, December 5, 2014

  Actual Average Record
Temperature  
Mean Temperature 37 °F -  
Max Temperature 46 °F 43 °F 62 °F (2001)
Min Temperature 28 °F 28 °F 15 °F (2000)
Degree Days  
Heating Degree Days 28    
Moisture  
Dew Point 29 °F    
Average Humidity 66    
Maximum Humidity 93    
Minimum Humidity 38    
Precipitation  
Precipitation 0.04 in - - ()
Sea Level Pressure  
Sea Level Pressure 30.54 in    
Wind  
Wind Speed 7 mph (East)    
Max Wind Speed 21 mph    
Max Gust Speed 25 mph    
Visibility 10 miles    
Events Rain    
Averages and records for this station are not official NWS values.
T = Trace of Precipitation, MM = Missing Value Source: NWS Daily Summary

Daily Weather History Graph

Daily Weather History Graph

Search for Another Location

Airport or City:

Trip Planner

Search our weather history database for the weather conditions in past years. The results will help you decide how hot, cold, wet, or windy it might be!

Date:

Astronomy

Dec. 05, 2014 Rise Set
Actual Time 6:53 AM EST 4:11 PM EST
Civil Twilight 6:22 AM EST 4:42 PM EST
Nautical Twilight 5:47 AM EST 5:17 PM EST
Astronomical Twilight 5:14 AM EST 5:51 PM EST
Moon 3:57 PM EST (12/5) 5:42 AM EST (12/5)
Length of Visible Light 10h 20m
Length of Day
9h 18m
Waxing Gibbous, 99% of the Moon is Illuminated
Dec 5
Waxing Gibbous
Dec 6
Full
Dec 14
Last Quarter
Dec 21
New
Dec 28
First Quarter

Hourly Weather History & Observations

Time (EST) Temp. Windchill Dew Point Humidity Pressure Visibility Wind Dir Wind Speed Gust Speed Precip Events Conditions
12:55 AM 33.8 °F - 17.6 °F 52% 30.54 in 10.0 mi Calm Calm - N/A   Clear
1:51 AM 30.2 °F - 19.4 °F 64% 30.56 in 10.0 mi Calm Calm - N/A   Clear
2:51 AM 32.0 °F - 19.4 °F 60% 30.57 in 10.0 mi Calm Calm - N/A   Clear
3:50 AM 30.2 °F 24.3 °F 17.6 °F 60% 30.58 in 10.0 mi North 5.8 mph - N/A   Clear
4:55 AM 28.4 °F 22.2 °F 17.6 °F 64% 30.59 in 10.0 mi North 5.8 mph - N/A   Clear
5:50 AM 28.4 °F 22.2 °F 17.6 °F 64% 30.60 in 10.0 mi North 5.8 mph - N/A   Clear
6:55 AM 33.8 °F 30.8 °F 26.6 °F 75% 30.59 in 10.0 mi North 3.5 mph - N/A   Clear
7:55 AM 37.4 °F - 14.0 °F 38% 30.60 in 10.0 mi North 2.3 mph - N/A   Clear
8:58 AM 39.2 °F 32.5 °F 23.0 °F 52% 30.61 in 10.0 mi North 10.4 mph - N/A   Clear
9:18 AM 39.2 °F 32.5 °F 21.2 °F 49% 30.63 in 10.0 mi ENE 10.4 mph - N/A   Clear
11:10 AM 41.0 °F 33.5 °F 26.6 °F 57% 30.58 in 10.0 mi East 13.8 mph - N/A   Scattered Clouds
12:00 PM 46.4 °F 41.5 °F 23.0 °F 40% 30.56 in 10.0 mi East 10.4 mph - N/A   Scattered Clouds
12:59 PM 42.8 °F 37.0 °F 21.2 °F 42% 30.56 in 10.0 mi ESE 10.4 mph - N/A   Scattered Clouds
1:15 PM 42.8 °F 36.2 °F 28.4 °F 57% 30.58 in - SE 12.7 mph - N/A   Unknown
1:35 PM 42.8 °F 38.0 °F 28.4 °F 57% 30.59 in 10.0 mi ESE 8.1 mph 15.0 mph N/A   Unknown
1:55 PM 42.8 °F 38.0 °F 28.4 °F 57% 30.59 in 10.0 mi ESE 8.1 mph - N/A   Mostly Cloudy
3:35 PM 41.0 °F 35.2 °F 30.2 °F 65% 30.58 in 10.0 mi East 9.2 mph - N/A   Overcast
3:55 PM 41.0 °F 36.4 °F 30.2 °F 65% 30.58 in 10.0 mi East 6.9 mph - N/A   Overcast
4:15 PM 41.0 °F 35.2 °F 30.2 °F 65% 30.57 in 10.0 mi East 9.2 mph - N/A   Overcast
4:35 PM 39.2 °F 33.6 °F 30.2 °F 70% 30.56 in 10.0 mi East 8.1 mph - N/A   Overcast
5:15 PM 39.2 °F 35.0 °F 30.2 °F 70% 30.57 in 10.0 mi East 5.8 mph - N/A   Overcast
5:35 PM 39.2 °F 35.0 °F 30.2 °F 70% 30.57 in 10.0 mi East 5.8 mph - N/A   Overcast
5:55 PM 39.2 °F 34.2 °F 32.0 °F 75% 30.56 in 10.0 mi East 6.9 mph - N/A   Mostly Cloudy
6:15 PM 41.0 °F 35.8 °F 32.0 °F 70% 30.55 in 10.0 mi East 8.1 mph 15.0 mph N/A   Overcast
6:35 PM 41.0 °F 34.3 °F 32.0 °F 70% 30.55 in 10.0 mi ESE 11.5 mph 18.4 mph N/A   Overcast
6:55 PM 41.0 °F 33.9 °F 32.0 °F 70% 30.54 in 10.0 mi ESE 12.7 mph - N/A   Overcast
7:15 PM 41.0 °F 34.3 °F 32.0 °F 70% 30.54 in 10.0 mi ESE 11.5 mph - N/A   Overcast
7:35 PM 41.0 °F 35.2 °F 33.8 °F 76% 30.54 in 10.0 mi ESE 9.2 mph 17.3 mph N/A   Overcast
7:55 PM 41.0 °F 33.9 °F 32.0 °F 70% 30.53 in 10.0 mi ESE 12.7 mph - N/A   Overcast
8:15 PM 41.0 °F 33.5 °F 32.0 °F 70% 30.53 in 10.0 mi ESE 13.8 mph 24.2 mph N/A   Overcast
8:35 PM 41.0 °F 34.3 °F 32.0 °F 70% 30.51 in 10.0 mi ESE 11.5 mph 20.7 mph N/A   Overcast
8:55 PM 41.0 °F 32.8 °F 33.8 °F 76% 30.50 in 10.0 mi ESE 16.1 mph 21.9 mph N/A   Overcast
9:15 PM 41.0 °F 33.5 °F 33.8 °F 76% 30.50 in 10.0 mi ESE 13.8 mph 23.0 mph N/A   Overcast
9:35 PM 41.0 °F 33.1 °F 33.8 °F 76% 30.49 in 10.0 mi ESE 15.0 mph 21.9 mph N/A   Overcast
9:55 PM 41.0 °F 31.9 °F 33.8 °F 76% 30.48 in 10.0 mi ESE 19.6 mph - N/A   Overcast
10:15 PM 41.0 °F 33.1 °F 33.8 °F 76% 30.47 in 10.0 mi ESE 15.0 mph 23.0 mph N/A   Overcast
10:35 PM 41.0 °F 32.8 °F 35.6 °F 81% 30.46 in 10.0 mi ESE 16.1 mph - N/A   Overcast
10:55 PM 41.0 °F 33.1 °F 35.6 °F 81% 30.45 in 10.0 mi ESE 15.0 mph 25.3 mph N/A   Overcast
11:15 PM 41.0 °F 34.7 °F 37.4 °F 87% 30.44 in 9.0 mi ESE 10.4 mph 20.7 mph N/A   Overcast
11:35 PM 41.0 °F 33.9 °F 37.4 °F 87% 30.43 in 6.0 mi ESE 12.7 mph 20.7 mph N/A Rain Light Rain
11:55 PM 41.0 °F 33.1 °F 39.2 °F 93% 30.42 in 6.0 mi ESE 15.0 mph - N/A Rain Light Rain